Time,TemperatureF,DewpointF,PressureIn,WindDirection,WindDirectionDegrees,WindSpeedMPH,WindSpeedGustMPH,Humidity,HourlyPrecipIn,Conditions,Clouds,dailyrainin,SoftwareType,DateUTC
2013-10-19 00:00:00,70.0,52.0,29.49,NNW,337,3.0,8.0,53,0.01,,,0.00,Weather View 32 v70,2013-10-19 04:00:00,
2013-10-19 00:05:00,70.0,43.2,29.49,NNW,337,1.0,8.0,38,0.01,,,0.00,Weather View 32 v70,2013-10-19 04:05:00,
2013-10-19 00:10:00,70.0,52.0,29.49,NNW,337,1.0,8.0,53,0.01,,,0.00,Weather View 32 v70,2013-10-19 04:10:00,
2013-10-19 00:15:00,70.0,42.5,29.49,NNW,337,1.0,8.0,37,0.01,,,0.00,Weather View 32 v70,2013-10-19 04:15:00,
2013-10-19 00:20:00,70.0,52.0,29.50,NNW,337,0.0,7.0,53,0.01,,,0.00,Weather View 32 v70,2013-10-19 04:20:00,
2013-10-19 00:25:00,70.0,42.5,29.50,NNW,337,1.0,6.0,37,0.01,,,0.00,Weather View 32 v70,2013-10-19 04:25:00,
2013-10-19 00:30:00,71.0,53.0,29.49,ENE,67,5.0,6.0,53,0.01,,,0.00,Weather View 32 v70,2013-10-19 04:30:00,
2013-10-19 00:40:00,71.0,52.4,29.47,ENE,67,5.0,6.0,52,0.00,,,0.00,Weather View 32 v70,2013-10-19 04:40:00,
2013-10-19 00:45:00,71.0,43.3,29.47,ENE,67,5.0,6.0,37,0.00,,,0.00,Weather View 32 v70,2013-10-19 04:45:00,
2013-10-19 00:50:00,71.0,53.0,29.49,ENE,67,1.0,6.0,53,0.00,,,0.00,Weather View 32 v70,2013-10-19 04:50:00,
2013-10-19 01:00:00,71.0,52.4,29.47,ENE,67,2.0,6.0,52,0.00,,,0.00,Weather View 32 v70,2013-10-19 05:00:00,
2013-10-19 01:05:00,71.0,43.3,29.47,ENE,67,0.0,6.0,37,0.00,,,0.00,Weather View 32 v70,2013-10-19 05:05:00,
2013-10-19 01:15:00,71.0,43.3,29.47,ENE,67,0.0,6.0,37,0.00,,,0.00,Weather View 32 v70,2013-10-19 05:15:00,
2013-10-19 01:20:00,71.0,52.4,29.48,ENE,67,2.0,6.0,52,0.00,,,0.00,Weather View 32 v70,2013-10-19 05:20:00,
2013-10-19 01:25:00,71.0,43.3,29.48,ENE,67,3.0,6.0,37,0.00,,,0.00,Weather View 32 v70,2013-10-19 05:25:00,
2013-10-19 01:30:00,71.0,52.4,29.47,ENE,67,1.0,6.0,52,0.00,,,0.00,Weather View 32 v70,2013-10-19 05:30:00,
2013-10-19 01:35:00,71.0,43.3,29.47,ENE,67,1.0,6.0,37,0.00,,,0.00,Weather View 32 v70,2013-10-19 05:35:00,
2013-10-19 01:40:00,71.0,52.4,29.47,ENE,67,0.0,6.0,52,0.00,,,0.00,Weather View 32 v70,2013-10-19 05:40:00,
2013-10-19 01:45:00,71.0,43.3,29.47,ENE,67,0.0,6.0,37,0.00,,,0.00,Weather View 32 v70,2013-10-19 05:45:00,
2013-10-19 01:50:00,71.0,52.4,29.47,ENE,67,0.0,5.0,52,0.00,,,0.00,Weather View 32 v70,2013-10-19 05:50:00,
2013-10-19 01:55:00,71.0,42.6,29.47,WSW,247,4.0,5.0,36,0.00,,,0.00,Weather View 32 v70,2013-10-19 05:55:00,
2013-10-19 02:00:00,71.0,52.4,29.47,WSW,247,1.0,5.0,52,0.00,,,0.00,Weather View 32 v70,2013-10-19 06:00:00,
2013-10-19 02:05:00,71.0,42.6,29.47,WSW,247,0.0,6.0,36,0.00,,,0.00,Weather View 32 v70,2013-10-19 06:05:00,
2013-10-19 02:15:00,71.0,41.9,29.48,WSW,247,1.0,6.0,35,0.00,,,0.00,Weather View 32 v70,2013-10-19 06:15:00,
2013-10-19 02:20:00,71.0,52.4,29.48,WSW,247,2.0,6.0,52,0.00,,,0.00,Weather View 32 v70,2013-10-19 06:20:00,
2013-10-19 02:25:00,70.0,41.0,29.48,WSW,247,1.0,6.0,35,0.00,,,0.00,Weather View 32 v70,2013-10-19 06:25:00,
2013-10-19 02:30:00,70.0,51.0,29.47,WSW,247,0.0,6.0,51,0.00,,,0.00,Weather View 32 v70,2013-10-19 06:30:00,
2013-10-19 02:35:00,70.0,41.7,29.47,WSW,247,0.0,6.0,36,0.00,,,0.00,Weather View 32 v70,2013-10-19 06:35:00,
2013-10-19 02:40:00,70.0,51.5,29.47,WSW,247,0.0,6.0,52,0.00,,,0.00,Weather View 32 v70,2013-10-19 06:40:00,
2013-10-19 02:45:00,70.0,42.5,29.47,WSW,247,0.0,6.0,37,0.00,,,0.00,Weather View 32 v70,2013-10-19 06:45:00,
2013-10-19 02:50:00,70.0,51.5,29.46,WSW,247,0.0,6.0,52,0.00,,,0.00,Weather View 32 v70,2013-10-19 06:50:00,
2013-10-19 02:55:00,70.0,42.5,29.46,WSW,247,0.0,6.0,37,0.00,,,0.00,Weather View 32 v70,2013-10-19 06:55:00,
2013-10-19 03:00:00,70.0,51.5,29.46,WSW,247,0.0,6.0,52,0.00,,,0.00,Weather View 32 v70,2013-10-19 07:00:00,
2013-10-19 03:05:00,70.0,42.5,29.46,WSW,247,0.0,5.0,37,0.00,,,0.00,Weather View 32 v70,2013-10-19 07:05:00,
2013-10-19 03:10:00,70.0,51.5,29.47,WSW,247,4.0,5.0,52,0.00,,,0.00,Weather View 32 v70,2013-10-19 07:10:00,
2013-10-19 03:20:00,70.0,51.0,29.45,WSW,247,2.0,4.0,51,0.00,,,0.00,Weather View 32 v70,2013-10-19 07:20:00,
2013-10-19 03:25:00,70.0,42.5,29.45,WSW,247,3.0,4.0,37,0.00,,,0.00,Weather View 32 v70,2013-10-19 07:25:00,
2013-10-19 03:30:00,69.0,50.1,29.45,WSW,247,3.0,4.0,51,0.00,,,0.00,Weather View 32 v70,2013-10-19 07:30:00,
2013-10-19 03:35:00,69.0,41.6,29.45,WSW,247,4.0,5.0,37,0.00,,,0.00,Weather View 32 v70,2013-10-19 07:35:00,
2013-10-19 03:45:00,69.0,41.6,29.46,WSW,247,2.0,5.0,37,0.00,,,0.00,Weather View 32 v70,2013-10-19 07:45:00,
2013-10-19 03:50:00,69.0,50.6,29.48,WSW,247,2.0,5.0,52,0.00,,,0.00,Weather View 32 v70,2013-10-19 07:50:00,
2013-10-19 03:55:00,69.0,42.3,29.48,WSW,247,1.0,5.0,38,0.00,,,0.00,Weather View 32 v70,2013-10-19 07:55:00,
2013-10-19 04:00:00,69.0,50.6,29.48,WSW,247,2.0,5.0,52,0.00,,,0.00,Weather View 32 v70,2013-10-19 08:00:00,
2013-10-19 04:05:00,69.0,41.6,29.48,WSW,247,6.0,6.0,37,0.00,,,0.00,Weather View 32 v70,2013-10-19 08:05:00,
2013-10-19 04:10:00,69.0,50.6,29.46,WSW,247,5.0,6.0,52,0.00,,,0.00,Weather View 32 v70,2013-10-19 08:10:00,
2013-10-19 04:20:00,69.0,50.1,29.46,WSW,247,5.0,6.0,51,0.00,,,0.00,Weather View 32 v70,2013-10-19 08:20:00,
2013-10-19 04:25:00,69.0,41.6,29.46,WSW,247,4.0,6.0,37,0.00,,,0.00,Weather View 32 v70,2013-10-19 08:25:00,
2013-10-19 04:30:00,68.0,49.1,29.46,WSW,247,3.0,6.0,51,0.00,,,0.00,Weather View 32 v70,2013-10-19 08:30:00,
2013-10-19 04:35:00,68.0,40.7,29.46,WSW,247,6.0,6.0,37,0.00,,,0.00,Weather View 32 v70,2013-10-19 08:35:00,
2013-10-19 04:40:00,69.0,50.1,29.46,WSW,247,6.0,6.0,51,0.00,,,0.00,Weather View 32 v70,2013-10-19 08:40:00,
2013-10-19 04:45:00,68.0,40.7,29.46,WSW,247,3.0,6.0,37,0.00,,,0.00,Weather View 32 v70,2013-10-19 08:45:00,
2013-10-19 04:50:00,68.0,49.1,29.46,WSW,247,3.0,6.0,51,0.00,,,0.00,Weather View 32 v70,2013-10-19 08:50:00,
2013-10-19 04:55:00,68.0,40.7,29.46,WSW,247,4.0,6.0,37,0.00,,,0.00,Weather View 32 v70,2013-10-19 08:55:00,
2013-10-19 05:00:00,68.0,49.1,29.49,WSW,247,4.0,6.0,51,0.00,,,0.00,Weather View 32 v70,2013-10-19 09:00:00,
2013-10-19 05:10:00,68.0,49.1,29.49,WSW,247,4.0,6.0,51,0.00,,,0.00,Weather View 32 v70,2013-10-19 09:10:00,
2013-10-19 05:15:00,68.0,40.7,29.49,WSW,247,5.0,6.0,37,0.00,,,0.00,Weather View 32 v70,2013-10-19 09:15:00,
2013-10-19 05:20:00,68.0,49.1,29.47,WSW,247,6.0,7.0,51,0.00,,,0.00,Weather View 32 v70,2013-10-19 09:20:00,
2013-10-19 05:25:00,68.0,40.7,29.47,WSW,247,3.0,7.0,37,0.00,,,0.00,Weather View 32 v70,2013-10-19 09:25:00,
2013-10-19 05:30:00,68.0,49.1,29.47,WSW,247,6.0,7.0,51,0.00,,,0.00,Weather View 32 v70,2013-10-19 09:30:00,
2013-10-19 05:35:00,68.0,40.7,29.47,WSW,247,6.0,10.0,37,0.00,,,0.00,Weather View 32 v70,2013-10-19 09:35:00,
2013-10-19 05:40:00,68.0,49.1,29.48,WSW,247,5.0,10.0,51,0.00,,,0.00,Weather View 32 v70,2013-10-19 09:40:00,
2013-10-19 05:45:00,68.0,40.7,29.48,WSW,247,6.0,10.0,37,0.00,,,0.00,Weather View 32 v70,2013-10-19 09:45:00,
2013-10-19 05:50:00,68.0,49.1,29.49,WSW,247,6.0,10.0,51,0.00,,,0.00,Weather View 32 v70,2013-10-19 09:50:00,
2013-10-19 05:55:00,68.0,40.7,29.49,WSW,247,6.0,10.0,37,0.00,,,0.00,Weather View 32 v70,2013-10-19 09:55:00,
2013-10-19 06:05:00,68.0,40.0,29.49,WSW,247,5.0,10.0,36,0.00,,,0.00,Weather View 32 v70,2013-10-19 10:05:00,
2013-10-19 06:10:00,68.0,49.1,29.47,WSW,247,5.0,10.0,51,0.00,,,0.00,Weather View 32 v70,2013-10-19 10:10:00,
2013-10-19 06:15:00,68.0,40.0,29.47,WSW,247,7.0,10.0,36,0.00,,,0.00,Weather View 32 v70,2013-10-19 10:15:00,
2013-10-19 06:20:00,69.0,49.5,29.47,WSW,247,7.0,10.0,50,0.00,,,0.00,Weather View 32 v70,2013-10-19 10:20:00,
2013-10-19 06:25:00,68.0,40.0,29.47,WSW,247,5.0,10.0,36,0.00,,,0.00,Weather View 32 v70,2013-10-19 10:25:00,
2013-10-19 06:30:00,68.0,48.6,29.47,WSW,247,7.0,10.0,50,0.00,,,0.00,Weather View 32 v70,2013-10-19 10:30:00,
2013-10-19 06:40:00,68.0,49.1,29.48,WSW,247,5.0,9.0,51,0.00,,,0.00,Weather View 32 v70,2013-10-19 10:40:00,
2013-10-19 06:45:00,68.0,40.0,29.48,WSW,247,3.0,9.0,36,0.00,,,0.00,Weather View 32 v70,2013-10-19 10:45:00,
2013-10-19 06:50:00,68.0,49.1,29.47,WSW,247,7.0,9.0,51,0.00,,,0.00,Weather View 32 v70,2013-10-19 10:50:00,
2013-10-19 06:55:00,68.0,40.0,29.47,WSW,247,6.0,9.0,36,0.00,,,0.00,Weather View 32 v70,2013-10-19 10:55:00,
2013-10-19 07:00:00,68.0,49.1,29.48,WSW,247,6.0,9.0,51,0.00,,,0.00,Weather View 32 v70,2013-10-19 11:00:00,
2013-10-19 07:05:00,68.0,40.0,29.48,WSW,247,4.0,9.0,36,0.00,,,0.00,Weather View 32 v70,2013-10-19 11:05:00,
2013-10-19 07:10:00,68.0,49.1,29.49,WSW,247,1.0,9.0,51,0.00,,,0.00,Weather View 32 v70,2013-10-19 11:10:00,
2013-10-19 07:15:00,68.0,40.0,29.49,WSW,247,4.0,9.0,36,0.00,,,0.00,Weather View 32 v70,2013-10-19 11:15:00,
2013-10-19 07:25:00,68.0,40.0,29.47,WSW,247,2.0,9.0,36,0.00,,,0.00,Weather View 32 v70,2013-10-19 11:25:00,
2013-10-19 07:30:00,68.0,48.6,29.49,WSW,247,5.0,9.0,50,0.00,,,0.00,Weather View 32 v70,2013-10-19 11:30:00,
2013-10-19 07:35:00,68.0,40.0,29.49,WSW,247,5.0,9.0,36,0.00,,,0.00,Weather View 32 v70,2013-10-19 11:35:00,
2013-10-19 07:40:00,68.0,48.6,29.47,WSW,247,6.0,9.0,50,0.00,,,0.00,Weather View 32 v70,2013-10-19 11:40:00,
2013-10-19 07:45:00,69.0,41.6,29.47,WSW,247,5.0,9.0,37,0.00,,,0.00,Weather View 32 v70,2013-10-19 11:45:00,
2013-10-19 07:50:00,69.0,40.9,29.47,WSW,247,4.0,9.0,36,0.00,,,0.00,Weather View 32 v70,2013-10-19 11:50:00,
2013-10-19 07:55:00,69.0,40.9,29.46,WSW,247,3.0,8.0,36,0.00,,,0.00,Weather View 32 v70,2013-10-19 11:55:00,
2013-10-19 08:00:00,69.0,40.9,29.46,WSW,247,6.0,7.0,36,0.00,,,0.00,Weather View 32 v70,2013-10-19 12:00:00,
2013-10-19 08:05:00,69.0,41.6,29.47,WSW,247,4.0,7.0,37,0.00,,,0.00,Weather View 32 v70,2013-10-19 12:05:00,
2013-10-19 08:15:00,69.0,40.9,29.47,WSW,247,4.0,7.0,36,0.00,,,0.00,Weather View 32 v70,2013-10-19 12:15:00,
2013-10-19 08:20:00,69.0,40.9,29.47,WSW,247,3.0,7.0,36,0.00,,,0.00,Weather View 32 v70,2013-10-19 12:20:00,
2013-10-19 08:25:00,69.0,40.9,29.50,WSW,247,6.0,7.0,36,0.00,,,0.00,Weather View 32 v70,2013-10-19 12:25:00,
2013-10-19 08:30:00,69.0,41.6,29.50,WSW,247,5.0,7.0,37,0.00,,,0.00,Weather View 32 v70,2013-10-19 12:30:00,
2013-10-19 08:35:00,69.0,40.9,29.47,WSW,247,4.0,7.0,36,0.00,,,0.00,Weather View 32 v70,2013-10-19 12:35:00,
2013-10-19 08:40:00,69.0,41.6,29.47,WSW,247,6.0,7.0,37,0.00,,,0.00,Weather View 32 v70,2013-10-19 12:40:00,
2013-10-19 08:50:00,69.0,41.6,29.47,WSW,247,4.0,7.0,37,0.00,,,0.00,Weather View 32 v70,2013-10-19 12:50:00,
2013-10-19 08:55:00,69.0,40.1,29.50,WSW,247,3.0,7.0,35,0.00,,,0.00,Weather View 32 v70,2013-10-19 12:55:00,
2013-10-19 09:00:00,69.0,40.1,29.50,WSW,247,4.0,7.0,35,0.00,,,0.00,Weather View 32 v70,2013-10-19 13:00:00,
2013-10-19 09:05:00,69.0,40.1,29.49,WSW,247,3.0,7.0,35,0.00,,,0.00,Weather View 32 v70,2013-10-19 13:05:00,
2013-10-19 09:10:00,69.0,40.1,29.49,WSW,247,5.0,7.0,35,0.00,,,0.00,Weather View 32 v70,2013-10-19 13:10:00,
2013-10-19 09:15:00,69.0,40.1,29.47,WSW,247,3.0,7.0,35,0.00,,,0.00,Weather View 32 v70,2013-10-19 13:15:00,
2013-10-19 09:20:00,70.0,41.0,29.47,WSW,247,3.0,7.0,35,0.00,,,0.00,Weather View 32 v70,2013-10-19 13:20:00,
2013-10-19 09:25:00,70.0,40.3,29.47,WSW,247,4.0,7.0,34,0.00,,,0.00,Weather View 32 v70,2013-10-19 13:25:00,
2013-10-19 09:30:00,71.0,41.9,29.47,WSW,247,3.0,7.0,35,0.00,,,0.00,Weather View 32 v70,2013-10-19 13:30:00,
2013-10-19 09:35:00,71.0,41.9,29.46,WSW,247,1.0,7.0,35,0.00,,,0.00,Weather View 32 v70,2013-10-19 13:35:00,
2013-10-19 09:45:00,72.0,42.8,29.46,WSW,247,2.0,6.0,35,0.00,,,0.00,Weather View 32 v70,2013-10-19 13:45:00,
2013-10-19 09:50:00,72.0,42.0,29.46,SSE,157,5.0,6.0,34,0.00,,,0.00,Weather View 32 v70,2013-10-19 13:50:00,
2013-10-19 09:55:00,71.0,41.1,29.48,SSE,157,3.0,7.0,34,0.00,,,0.00,Weather View 32 v70,2013-10-19 13:55:00,
2013-10-19 10:00:00,72.0,42.0,29.48,SSE,157,3.0,7.0,34,0.00,,,0.00,Weather View 32 v70,2013-10-19 14:00:00,
2013-10-19 10:05:00,71.0,41.1,29.48,SSE,157,3.0,7.0,34,0.00,,,0.00,Weather View 32 v70,2013-10-19 14:05:00,
2013-10-19 10:10:00,71.0,41.1,29.48,SSE,157,3.0,7.0,34,0.00,,,0.00,Weather View 32 v70,2013-10-19 14:10:00,
2013-10-19 10:15:00,72.0,42.8,29.46,ENE,67,4.0,7.0,35,0.00,,,0.00,Weather View 32 v70,2013-10-19 14:15:00,
2013-10-19 10:20:00,72.0,42.8,29.46,SSE,157,2.0,7.0,35,0.00,,,0.00,Weather View 32 v70,2013-10-19 14:20:00,
2013-10-19 10:25:00,73.0,45.1,29.46,SSE,157,7.0,7.0,37,0.00,,,0.00,Weather View 32 v70,2013-10-19 14:25:00,
2013-10-19 10:35:00,72.0,44.9,29.46,SSE,157,5.0,7.0,38,0.00,,,0.00,Weather View 32 v70,2013-10-19 14:35:00,
2013-10-19 10:40:00,71.0,44.0,29.46,SSE,157,4.0,7.0,38,0.02,,,0.02,Weather View 32 v70,2013-10-19 14:40:00,
2013-10-19 10:45:00,71.0,44.7,29.49,SSE,157,0.0,7.0,39,0.02,,,0.02,Weather View 32 v70,2013-10-19 14:45:00,
2013-10-19 10:50:00,71.0,44.7,29.49,SSE,157,2.0,7.0,39,0.02,,,0.02,Weather View 32 v70,2013-10-19 14:50:00,
2013-10-19 10:55:00,71.0,44.7,29.46,SSE,157,2.0,7.0,39,0.03,,,0.03,Weather View 32 v70,2013-10-19 14:55:00,
2013-10-19 11:00:00,72.0,45.6,29.46,SSE,157,1.0,7.0,39,0.03,,,0.03,Weather View 32 v70,2013-10-19 15:00:00,
2013-10-19 11:05:00,72.0,45.6,29.47,SSE,157,2.0,7.0,39,0.03,,,0.03,Weather View 32 v70,2013-10-19 15:05:00,
2013-10-19 11:10:00,72.0,45.6,29.47,SSE,157,6.0,7.0,39,0.03,,,0.03,Weather View 32 v70,2013-10-19 15:10:00,
2013-10-19 11:20:00,72.0,45.6,29.48,SSE,157,8.0,8.0,39,0.04,,,0.04,Weather View 32 v70,2013-10-19 15:20:00,
2013-10-19 11:25:00,72.0,45.6,29.47,WSW,247,8.0,9.0,39,0.04,,,0.04,Weather View 32 v70,2013-10-19 15:25:00,
2013-10-19 11:30:00,72.0,46.3,29.47,NNW,337,7.0,11.0,40,0.04,,,0.04,Weather View 32 v70,2013-10-19 15:30:00,
2013-10-19 11:35:00,72.0,46.3,29.46,NNW,337,10.0,11.0,40,0.04,,,0.04,Weather View 32 v70,2013-10-19 15:35:00,
2013-10-19 11:40:00,71.0,45.4,29.46,WSW,247,5.0,11.0,40,0.02,,,0.04,Weather View 32 v70,2013-10-19 15:40:00,
2013-10-19 11:45:00,71.0,44.7,29.46,WSW,247,7.0,11.0,39,0.02,,,0.04,Weather View 32 v70,2013-10-19 15:45:00,
2013-10-19 11:55:00,71.0,44.7,29.49,WSW,247,6.0,11.0,39,0.01,,,0.04,Weather View 32 v70,2013-10-19 15:55:00,
2013-10-19 12:00:00,71.0,45.4,29.49,WSW,247,6.0,11.0,40,0.01,,,0.04,Weather View 32 v70,2013-10-19 16:00:00,
2013-10-19 12:05:00,71.0,45.4,29.49,WSW,247,6.0,11.0,40,0.02,,,0.05,Weather View 32 v70,2013-10-19 16:05:00,
2013-10-19 12:10:00,71.0,45.4,29.49,WSW,247,10.0,12.0,40,0.07,,,0.10,Weather View 32 v70,2013-10-19 16:10:00,
2013-10-19 12:15:00,71.0,44.7,29.47,WSW,247,9.0,12.0,39,0.13,,,0.16,Weather View 32 v70,2013-10-19 16:15:00,
2013-10-19 12:20:00,71.0,45.4,29.47,WSW,247,6.0,12.0,40,0.14,,,0.18,Weather View 32 v70,2013-10-19 16:20:00,
2013-10-19 12:30:00,71.0,44.7,29.47,WSW,247,6.0,12.0,39,0.15,,,0.19,Weather View 32 v70,2013-10-19 16:30:00,
2013-10-19 12:35:00,71.0,44.7,29.47,WSW,247,6.0,12.0,39,0.15,,,0.19,Weather View 32 v70,2013-10-19 16:35:00,
2013-10-19 12:40:00,71.0,44.7,29.47,WSW,247,6.0,12.0,39,0.15,,,0.19,Weather View 32 v70,2013-10-19 16:40:00,
2013-10-19 12:45:00,72.0,44.9,29.47,WSW,247,6.0,12.0,38,0.16,,,0.20,Weather View 32 v70,2013-10-19 16:45:00,
2013-10-19 12:50:00,71.0,44.7,29.47,WSW,247,7.0,14.0,39,0.16,,,0.20,Weather View 32 v70,2013-10-19 16:50:00,
2013-10-19 12:55:00,72.0,44.9,29.44,WSW,247,10.0,14.0,38,0.16,,,0.20,Weather View 32 v70,2013-10-19 16:55:00,
2013-10-19 13:00:00,72.0,45.6,29.44,WSW,247,8.0,14.0,39,0.16,,,0.20,Weather View 32 v70,2013-10-19 17:00:00,
2013-10-19 13:05:00,72.0,44.9,29.43,WSW,247,8.0,14.0,38,0.15,,,0.20,Weather View 32 v70,2013-10-19 17:05:00,
2013-10-19 13:15:00,72.0,44.9,29.43,WSW,247,8.0,14.0,38,0.04,,,0.20,Weather View 32 v70,2013-10-19 17:15:00,
2013-10-19 13:20:00,71.0,44.7,29.43,WSW,247,6.0,14.0,39,0.02,,,0.20,Weather View 32 v70,2013-10-19 17:20:00,
2013-10-19 13:25:00,71.0,44.0,29.44,NNW,337,6.0,14.0,38,0.02,,,0.20,Weather View 32 v70,2013-10-19 17:25:00,
2013-10-19 13:30:00,71.0,45.4,29.44,NNW,337,5.0,14.0,40,0.01,,,0.20,Weather View 32 v70,2013-10-19 17:30:00,
2013-10-19 13:35:00,71.0,44.7,29.42,NNW,337,5.0,14.0,39,0.01,,,0.20,Weather View 32 v70,2013-10-19 17:35:00,
2013-10-19 13:40:00,72.0,46.3,29.42,WSW,247,4.0,14.0,40,0.01,,,0.20,Weather View 32 v70,2013-10-19 17:40:00,
2013-10-19 13:50:00,72.0,46.3,29.41,WSW,247,2.0,14.0,40,0.00,,,0.20,Weather View 32 v70,2013-10-19 17:50:00,
2013-10-19 13:55:00,72.0,45.6,29.41,WSW,247,2.0,12.0,39,0.00,,,0.20,Weather View 32 v70,2013-10-19 17:55:00,
2013-10-19 14:00:00,73.0,46.5,29.41,SSE,157,0.0,12.0,39,0.00,,,0.20,Weather View 32 v70,2013-10-19 18:00:00,
2013-10-19 14:05:00,73.0,46.5,29.41,SSE,157,3.0,12.0,39,0.00,,,0.20,Weather View 32 v70,2013-10-19 18:05:00,
2013-10-19 14:10:00,72.0,46.3,29.41,WSW,247,5.0,12.0,40,0.00,,,0.20,Weather View 32 v70,2013-10-19 18:10:00,
2013-10-19 14:15:00,72.0,45.6,29.41,WSW,247,5.0,9.0,39,0.00,,,0.20,Weather View 32 v70,2013-10-19 18:15:00,
2013-10-19 14:20:00,72.0,46.9,29.41,WSW,247,2.0,9.0,41,0.00,,,0.20,Weather View 32 v70,2013-10-19 18:20:00,
2013-10-19 14:25:00,73.0,47.8,29.42,SSE,157,4.0,9.0,41,0.00,,,0.20,Weather View 32 v70,2013-10-19 18:25:00,
2013-10-19 14:35:00,73.0,47.8,29.39,SSE,157,6.0,7.0,41,0.00,,,0.20,Weather View 32 v70,2013-10-19 18:35:00,
2013-10-19 14:40:00,73.0,49.1,29.39,SSE,157,3.0,7.0,43,0.00,,,0.20,Weather View 32 v70,2013-10-19 18:40:00,
2013-10-19 14:45:00,73.0,49.1,29.40,SSE,157,2.0,7.0,43,0.00,,,0.20,Weather View 32 v70,2013-10-19 18:45:00,
2013-10-19 14:50:00,73.0,49.1,29.40,WSW,247,6.0,7.0,43,0.00,,,0.20,Weather View 32 v70,2013-10-19 18:50:00,
2013-10-19 14:55:00,73.0,49.7,29.39,WSW,247,7.0,7.0,44,0.00,,,0.20,Weather View 32 v70,2013-10-19 18:55:00,
2013-10-19 15:00:00,73.0,50.3,29.39,WSW,247,6.0,8.0,45,0.00,,,0.20,Weather View 32 v70,2013-10-19 19:00:00,
2013-10-19 15:05:00,73.0,50.9,29.40,WSW,247,6.0,8.0,46,0.00,,,0.20,Weather View 32 v70,2013-10-19 19:05:00,
2013-10-19 15:15:00,73.0,52.7,29.41,WSW,247,7.0,10.0,49,0.00,,,0.20,Weather View 32 v70,2013-10-19 19:15:00,
2013-10-19 15:20:00,73.0,53.2,29.41,WSW,247,5.0,10.0,50,0.00,,,0.20,Weather View 32 v70,2013-10-19 19:20:00,
2013-10-19 15:25:00,74.0,54.1,29.39,WSW,247,7.0,10.0,50,0.00,,,0.20,Weather View 32 v70,2013-10-19 19:25:00,
2013-10-19 15:30:00,74.0,54.1,29.39,WSW,247,5.0,10.0,50,0.00,,,0.20,Weather View 32 v70,2013-10-19 19:30:00,
2013-10-19 15:35:00,74.0,54.7,29.41,WSW,247,9.0,10.0,51,0.00,,,0.20,Weather View 32 v70,2013-10-19 19:35:00,
2013-10-19 15:40:00,74.0,54.7,29.41,WSW,247,9.0,11.0,51,0.00,,,0.20,Weather View 32 v70,2013-10-19 19:40:00,
2013-10-19 15:45:00,74.0,54.7,29.39,WSW,247,8.0,11.0,51,0.00,,,0.20,Weather View 32 v70,2013-10-19 19:45:00,
2013-10-19 15:50:00,74.0,55.2,29.39,WSW,247,7.0,11.0,52,0.00,,,0.20,Weather View 32 v70,2013-10-19 19:50:00,
2013-10-19 16:00:00,74.0,55.7,29.41,WSW,247,6.0,11.0,53,0.00,,,0.20,Weather View 32 v70,2013-10-19 20:00:00,
2013-10-19 16:10:00,74.0,56.2,29.39,WSW,247,6.0,11.0,54,0.00,,,0.20,Weather View 32 v70,2013-10-19 20:10:00,
2013-10-19 16:15:00,75.0,56.7,29.40,WSW,247,7.0,12.0,53,0.00,,,0.20,Weather View 32 v70,2013-10-19 20:15:00,
2013-10-19 16:20:00,75.0,57.2,29.40,WSW,247,9.0,12.0,54,0.00,,,0.20,Weather View 32 v70,2013-10-19 20:20:00,
2013-10-19 16:25:00,75.0,57.2,29.39,WSW,247,3.0,12.0,54,0.00,,,0.20,Weather View 32 v70,2013-10-19 20:25:00,
2013-10-19 16:30:00,75.0,57.2,29.39,WSW,247,7.0,12.0,54,0.00,,,0.20,Weather View 32 v70,2013-10-19 20:30:00,
2013-10-19 16:40:00,75.0,57.7,29.38,WSW,247,9.0,12.0,55,0.00,,,0.20,Weather View 32 v70,2013-10-19 20:40:00,
2013-10-19 16:45:00,75.0,57.7,29.38,SSE,157,6.0,12.0,55,0.00,,,0.20,Weather View 32 v70,2013-10-19 20:45:00,
2013-10-19 16:50:00,75.0,57.7,29.38,SSE,157,4.0,12.0,55,0.00,,,0.20,Weather View 32 v70,2013-10-19 20:50:00,
2013-10-19 16:55:00,75.0,57.7,29.38,WSW,247,7.0,12.0,55,0.00,,,0.20,Weather View 32 v70,2013-10-19 20:55:00,
2013-10-19 17:00:00,75.0,57.7,29.38,WSW,247,7.0,12.0,55,0.00,,,0.20,Weather View 32 v70,2013-10-19 21:00:00,
2013-10-19 17:05:00,75.0,57.7,29.38,WSW,247,6.0,12.0,55,0.00,,,0.20,Weather View 32 v70,2013-10-19 21:05:00,
2013-10-19 17:10:00,75.0,57.7,29.38,SSE,157,4.0,12.0,55,0.00,,,0.20,Weather View 32 v70,2013-10-19 21:10:00,
2013-10-19 17:15:00,75.0,57.2,29.39,SSE,157,6.0,12.0,54,0.00,,,0.20,Weather View 32 v70,2013-10-19 21:15:00,
2013-10-19 17:25:00,74.0,55.7,29.38,SSE,157,5.0,11.0,53,0.00,,,0.20,Weather View 32 v70,2013-10-19 21:25:00,
2013-10-19 17:30:00,74.0,56.2,29.38,SSE,157,4.0,11.0,54,0.00,,,0.20,Weather View 32 v70,2013-10-19 21:30:00,
2013-10-19 17:35:00,74.0,56.2,29.40,SSE,157,6.0,10.0,54,0.00,,,0.20,Weather View 32 v70,2013-10-19 21:35:00,
2013-10-19 17:40:00,74.0,56.2,29.40,SSE,157,6.0,10.0,54,0.00,,,0.20,Weather View 32 v70,2013-10-19 21:40:00,
2013-10-19 17:45:00,74.0,55.7,29.39,SSE,157,4.0,10.0,53,0.00,,,0.20,Weather View 32 v70,2013-10-19 21:45:00,
2013-10-19 17:50:00,74.0,55.7,29.39,SSE,157,4.0,10.0,53,0.00,,,0.20,Weather View 32 v70,2013-10-19 21:50:00,
2013-10-19 18:00:00,74.0,55.7,29.39,SSE,157,7.0,9.0,53,0.00,,,0.20,Weather View 32 v70,2013-10-19 22:00:00,
2013-10-19 18:10:00,74.0,55.7,29.41,WSW,247,5.0,9.0,53,0.00,,,0.20,Weather View 32 v70,2013-10-19 22:10:00,
2013-10-19 18:15:00,73.0,54.3,29.39,WSW,247,5.0,9.0,52,0.00,,,0.20,Weather View 32 v70,2013-10-19 22:15:00,
2013-10-19 18:20:00,73.0,54.3,29.39,WSW,247,6.0,9.0,52,0.00,,,0.20,Weather View 32 v70,2013-10-19 22:20:00,
2013-10-19 18:25:00,73.0,53.7,29.41,WSW,247,6.0,9.0,51,0.00,,,0.20,Weather View 32 v70,2013-10-19 22:25:00,
2013-10-19 18:30:00,73.0,54.3,29.41,WSW,247,6.0,9.0,52,0.00,,,0.20,Weather View 32 v70,2013-10-19 22:30:00,
2013-10-19 18:35:00,73.0,54.3,29.40,WSW,247,5.0,9.0,52,0.00,,,0.20,Weather View 32 v70,2013-10-19 22:35:00,
2013-10-19 18:40:00,73.0,54.3,29.40,WSW,247,4.0,9.0,52,0.00,,,0.20,Weather View 32 v70,2013-10-19 22:40:00,
2013-10-19 18:45:00,73.0,53.7,29.41,WSW,247,4.0,9.0,51,0.00,,,0.20,Weather View 32 v70,2013-10-19 22:45:00,
2013-10-19 18:55:00,73.0,53.7,29.41,SSE,157,4.0,9.0,51,0.00,,,0.20,Weather View 32 v70,2013-10-19 22:55:00,
2013-10-19 19:00:00,73.0,53.7,29.41,SSE,157,6.0,9.0,51,0.00,,,0.20,Weather View 32 v70,2013-10-19 23:00:00,
2013-10-19 19:10:00,73.0,53.2,29.42,WSW,247,6.0,7.0,50,0.00,,,0.20,Weather View 32 v70,2013-10-19 23:10:00,
2013-10-19 19:15:00,73.0,53.2,29.40,WSW,247,4.0,7.0,50,0.00,,,0.20,Weather View 32 v70,2013-10-19 23:15:00,
2013-10-19 19:20:00,73.0,53.2,29.40,WSW,247,4.0,7.0,50,0.00,,,0.20,Weather View 32 v70,2013-10-19 23:20:00,
2013-10-19 19:30:00,73.0,53.7,29.42,WSW,247,7.0,10.0,51,0.00,,,0.20,Weather View 32 v70,2013-10-19 23:30:00,
2013-10-19 19:40:00,73.0,54.8,29.40,WSW,247,7.0,12.0,53,0.00,,,0.20,Weather View 32 v70,2013-10-19 23:40:00,
2013-10-19 19:45:00,73.0,54.8,29.42,WSW,247,9.0,12.0,53,0.00,,,0.20,Weather View 32 v70,2013-10-19 23:45:00,
2013-10-19 19:50:00,73.0,54.8,29.42,WSW,247,7.0,12.0,53,0.00,,,0.20,Weather View 32 v70,2013-10-19 23:50:00,
2013-10-19 19:55:00,73.0,54.8,29.41,WSW,247,8.0,12.0,53,0.00,,,0.20,Weather View 32 v70,2013-10-19 23:55:00,
2013-10-19 20:00:00,73.0,54.8,29.41,WSW,247,7.0,12.0,53,0.00,,,0.20,Weather View 32 v70,2013-10-20 00:00:00,
2013-10-19 20:10:00,73.0,54.8,29.42,WSW,247,8.0,12.0,53,0.00,,,0.20,Weather View 32 v70,2013-10-20 00:10:00,
2013-10-19 20:15:00,73.0,54.3,29.43,WSW,247,7.0,12.0,52,0.00,,,0.20,Weather View 32 v70,2013-10-20 00:15:00,
2013-10-19 20:20:00,72.0,53.4,29.43,WSW,247,6.0,12.0,52,0.00,,,0.20,Weather View 32 v70,2013-10-20 00:20:00,
2013-10-19 20:25:00,72.0,52.8,29.41,WSW,247,6.0,12.0,51,0.00,,,0.20,Weather View 32 v70,2013-10-20 00:25:00,
2013-10-19 20:30:00,72.0,52.8,29.41,WSW,247,8.0,12.0,51,0.00,,,0.20,Weather View 32 v70,2013-10-20 00:30:00,
2013-10-19 20:40:00,72.0,52.8,29.41,WSW,247,7.0,12.0,51,0.00,,,0.20,Weather View 32 v70,2013-10-20 00:40:00,
2013-10-19 20:45:00,72.0,52.3,29.43,WSW,247,6.0,12.0,50,0.00,,,0.20,Weather View 32 v70,2013-10-20 00:45:00,
2013-10-19 20:50:00,72.0,52.3,29.43,WSW,247,9.0,9.0,50,0.00,,,0.20,Weather View 32 v70,2013-10-20 00:50:00,
2013-10-19 21:00:00,72.0,51.2,29.44,WSW,247,6.0,9.0,48,0.00,,,0.20,Weather View 32 v70,2013-10-20 01:00:00,
2013-10-19 21:10:00,72.0,51.2,29.41,WSW,247,5.0,10.0,48,0.00,,,0.20,Weather View 32 v70,2013-10-20 01:10:00,
2013-10-19 21:15:00,72.0,50.0,29.41,WSW,247,7.0,10.0,46,0.00,,,0.20,Weather View 32 v70,2013-10-20 01:15:00,
2013-10-19 21:20:00,72.0,50.0,29.41,WSW,247,6.0,10.0,46,0.00,,,0.20,Weather View 32 v70,2013-10-20 01:20:00,
2013-10-19 21:25:00,72.0,49.4,29.41,WSW,247,6.0,10.0,45,0.00,,,0.20,Weather View 32 v70,2013-10-20 01:25:00,
2013-10-19 21:30:00,72.0,50.0,29.41,WSW,247,6.0,10.0,46,0.00,,,0.20,Weather View 32 v70,2013-10-20 01:30:00,
2013-10-19 21:35:00,72.0,49.4,29.42,WSW,247,7.0,10.0,45,0.00,,,0.20,Weather View 32 v70,2013-10-20 01:35:00,
2013-10-19 21:45:00,71.0,47.9,29.42,WSW,247,6.0,10.0,44,0.00,,,0.20,Weather View 32 v70,2013-10-20 01:45:00,
2013-10-19 21:50:00,71.0,48.5,29.42,WSW,247,7.0,10.0,45,0.00,,,0.20,Weather View 32 v70,2013-10-20 01:50:00,
2013-10-19 21:55:00,71.0,47.3,29.43,WSW,247,7.0,10.0,43,0.00,,,0.20,Weather View 32 v70,2013-10-20 01:55:00,
2013-10-19 22:00:00,71.0,47.9,29.43,WSW,247,5.0,10.0,44,0.00,,,0.20,Weather View 32 v70,2013-10-20 02:00:00,
2013-10-19 22:10:00,71.0,47.3,29.43,WSW,247,6.0,9.0,43,0.00,,,0.20,Weather View 32 v70,2013-10-20 02:10:00,
2013-10-19 22:20:00,71.0,47.3,29.45,WSW,247,7.0,9.0,43,0.00,,,0.20,Weather View 32 v70,2013-10-20 02:20:00,
2013-10-19 22:25:00,71.0,46.0,29.45,WSW,247,6.0,9.0,41,0.00,,,0.20,Weather View 32 v70,2013-10-20 02:25:00,
2013-10-19 22:30:00,71.0,46.7,29.45,WSW,247,9.0,10.0,42,0.00,,,0.20,Weather View 32 v70,2013-10-20 02:30:00,
2013-10-19 22:35:00,71.0,46.0,29.45,WSW,247,9.0,12.0,41,0.00,,,0.20,Weather View 32 v70,2013-10-20 02:35:00,
2013-10-19 22:40:00,71.0,46.0,29.45,WSW,247,9.0,12.0,41,0.00,,,0.20,Weather View 32 v70,2013-10-20 02:40:00,
2013-10-19 22:50:00,71.0,46.0,29.43,WSW,247,7.0,12.0,41,0.00,,,0.20,Weather View 32 v70,2013-10-20 02:50:00,
2013-10-19 22:55:00,71.0,45.4,29.44,WSW,247,10.0,12.0,40,0.00,,,0.20,Weather View 32 v70,2013-10-20 02:55:00,
2013-10-19 23:00:00,71.0,46.0,29.44,WSW,247,6.0,12.0,41,0.00,,,0.20,Weather View 32 v70,2013-10-20 03:00:00,
2013-10-19 23:05:00,71.0,45.4,29.45,WSW,247,8.0,12.0,40,0.00,,,0.20,Weather View 32 v70,2013-10-20 03:05:00,
2013-10-19 23:10:00,71.0,46.0,29.45,WSW,247,7.0,12.0,41,0.00,,,0.20,Weather View 32 v70,2013-10-20 03:10:00,
2013-10-19 23:15:00,71.0,45.4,29.44,WSW,247,7.0,12.0,40,0.00,,,0.20,Weather View 32 v70,2013-10-20 03:15:00,
2013-10-19 23:20:00,71.0,46.0,29.44,WSW,247,8.0,12.0,41,0.00,,,0.20,Weather View 32 v70,2013-10-20 03:20:00,
2013-10-19 23:25:00,70.0,45.8,29.44,WSW,247,10.0,12.0,42,0.00,,,0.20,Weather View 32 v70,2013-10-20 03:25:00,
2013-10-19 23:30:00,70.0,48.8,29.44,WSW,247,9.0,14.0,47,0.00,,,0.20,Weather View 32 v70,2013-10-20 03:30:00,
2013-10-19 23:40:00,71.0,54.0,29.44,WSW,247,10.0,15.0,55,0.00,,,0.20,Weather View 32 v70,2013-10-20 03:40:00,
2013-10-19 23:45:00,71.0,55.0,29.43,WSW,247,10.0,15.0,57,0.00,,,0.20,Weather View 32 v70,2013-10-20 03:45:00,
2013-10-19 23:50:00,71.0,55.4,29.43,WSW,247,10.0,16.0,58,0.00,,,0.20,Weather View 32 v70,2013-10-20 03:50:00,